Anoka County, MN

4:26 PM CDT on October 14, 2019 (GMT -0500)
Anoka County / Blaine Airport

Weather History for KANE - August, 2019

Change the Weather History Date:

Tuesday, August 27, 2019

  Actual Average Record
Temperature  
Mean Temperature 66 °F -  
Max Temperature 71 °F 76 °F 91 °F (2013)
Min Temperature 60 °F 57 °F 50 °F (2003)
Growing Degree Days 16 (Base 50)    
Moisture  
Dew Point 56 °F    
Average Humidity 80    
Maximum Humidity 100    
Minimum Humidity 49    
Precipitation  
Precipitation 0.16 in - - ()
Sea Level Pressure  
Sea Level Pressure 29.74 in    
Wind  
Wind Speed 8 mph (WSW)    
Max Wind Speed 18 mph    
Max Gust Speed 32 mph    
Visibility 10 miles    
Events      
Averages and records for this station are not official NWS values.
T = Trace of Precipitation, MM = Missing Value Source: NWS Daily Summary

Daily Weather History Graph

Daily Weather History Graph

Search for Another Location

Airport or City:

Astronomy

Aug. 27, 2019 Rise Set
Actual Time 6:28 AM CDT 7:59 PM CDT
Civil Twilight 5:57 AM CDT 8:30 PM CDT
Nautical Twilight 5:20 AM CDT 9:07 PM CDT
Astronomical Twilight 4:40 AM CDT 9:47 PM CDT
Moon 2:43 AM CDT (8/27) 6:30 PM CDT (8/27)
Length of Visible Light 14h 32m
Length of Day
13h 31m
Waning Crescent, 11% of the Moon is Illuminated
Aug 27
Waning Crescent
Aug 30
New
Sep 5
First Quarter
Sep 13
Full
Sep 21
Last Quarter

Hourly Weather History & Observations

Time (CDT) Temp. Dew Point Humidity Pressure Visibility Wind Dir Wind Speed Gust Speed Precip Events Conditions
12:19 AM 62.6 °F 60.8 °F 94% 29.71 in 10.0 mi West 5.8 mph - 0.01 in   Unknown
12:36 AM 60.8 °F 60.8 °F 100% 29.70 in 10.0 mi West 5.8 mph - 0.02 in   Unknown
12:56 AM 60.8 °F 60.8 °F 100% 29.70 in 10.0 mi West 4.6 mph - N/A   Unknown
1:16 AM 60.8 °F 60.8 °F 100% 29.71 in 10.0 mi West 6.9 mph - 0.01 in   Unknown
1:35 AM 60.8 °F 59.0 °F 94% 29.71 in 10.0 mi West 5.8 mph - 0.02 in   Unknown
1:40 AM 62.6 °F 59.0 °F 88% 29.70 in 10.0 mi West 5.8 mph - 0.02 in   Unknown
1:57 AM 60.8 °F 59.0 °F 94% 29.71 in 10.0 mi WSW 4.6 mph - N/A   Unknown
2:15 AM 62.6 °F 57.2 °F 82% 29.71 in 10.0 mi WSW 6.9 mph - 0.01 in   Unknown
2:36 AM 60.8 °F 57.2 °F 88% 29.71 in 10.0 mi WSW 6.9 mph - 0.02 in   Unknown
2:56 AM 60.8 °F 57.2 °F 88% 29.71 in 10.0 mi West 6.9 mph - N/A   Unknown
3:19 AM 60.8 °F 57.2 °F 88% 29.71 in 10.0 mi WSW 5.8 mph - 0.01 in   Unknown
3:36 AM 60.8 °F 57.2 °F 88% 29.71 in 10.0 mi West 5.8 mph - 0.02 in   Unknown
3:56 AM 60.8 °F 57.2 °F 88% 29.71 in 10.0 mi WSW 6.9 mph - N/A   Unknown
4:16 AM 60.8 °F 57.2 °F 88% 29.71 in 10.0 mi WSW 4.6 mph - 0.01 in   Unknown
4:35 AM 60.8 °F 57.2 °F 88% 29.71 in 10.0 mi WSW 6.9 mph - 0.02 in   Unknown
4:40 AM 60.8 °F 57.2 °F 88% 29.71 in 10.0 mi WSW 6.9 mph - 0.02 in   Unknown
4:57 AM 60.8 °F 57.2 °F 88% 29.71 in 10.0 mi WSW 8.1 mph - N/A   Unknown
5:16 AM 60.8 °F 57.2 °F 88% 29.71 in 10.0 mi SW 5.8 mph - 0.01 in   Unknown
5:36 AM 60.8 °F 57.2 °F 88% 29.71 in 10.0 mi SW 6.9 mph - 0.02 in   Unknown
5:55 AM 60.8 °F 57.2 °F 88% 29.71 in 10.0 mi SW 6.9 mph - 0.03 in   Unknown
6:18 AM 60.8 °F 57.2 °F 88% 29.70 in 10.0 mi SW 6.9 mph - 0.01 in   Unknown
6:37 AM 60.8 °F 57.2 °F 88% 29.70 in 10.0 mi SW 6.9 mph - 0.01 in   Unknown
6:50 AM 60.8 °F 57.2 °F 88% 29.72 in 10.0 mi WSW 6.9 mph - N/A   Clear
6:56 AM 60.8 °F 57.2 °F 88% 29.72 in 10.0 mi SW 6.9 mph - N/A   Unknown
7:55 AM 60.8 °F 57.2 °F 88% 29.72 in 10.0 mi West 6.9 mph - N/A   Scattered Clouds
8:45 AM 62.6 °F 57.2 °F 82% 29.74 in 10.0 mi West 11.5 mph 17.3 mph N/A   Scattered Clouds
9:45 AM 62.6 °F 57.2 °F 82% 29.75 in 10.0 mi WSW 12.7 mph 17.3 mph N/A   Mostly Cloudy
10:50 AM 66.2 °F 55.4 °F 68% 29.77 in 10.0 mi WSW 13.8 mph 20.7 mph N/A   Mostly Cloudy
11:48 AM 69.8 °F 53.6 °F 56% 29.76 in 10.0 mi West 12.7 mph 21.9 mph N/A   Mostly Cloudy
12:45 PM 71.6 °F 53.6 °F 53% 29.75 in 10.0 mi West 13.8 mph 28.8 mph N/A   Mostly Cloudy
1:45 PM 66.2 °F 55.4 °F 68% 29.74 in 10.0 mi West 5.8 mph 13.8 mph N/A   Mostly Cloudy
2:23 PM 69.8 °F 50.0 °F 49% 29.73 in 10.0 mi West 18.4 mph 32.2 mph N/A   Mostly Cloudy
2:45 PM 60.8 °F 51.8 °F 72% 29.75 in 10.0 mi North - - N/A   Mostly Cloudy
3:45 PM 66.2 °F 55.4 °F 68% 29.75 in 10.0 mi West 9.2 mph 17.3 mph N/A   Mostly Cloudy
4:45 PM 69.8 °F 50.0 °F 49% 29.75 in 10.0 mi West 11.5 mph 23.0 mph N/A   Mostly Cloudy
5:45 PM 64.4 °F 53.6 °F 68% 29.76 in 10.0 mi West 11.5 mph - N/A   Mostly Cloudy
6:45 PM 66.2 °F 51.8 °F 60% 29.76 in 10.0 mi West 13.8 mph 20.7 mph N/A   Mostly Cloudy
7:45 PM 64.4 °F 51.8 °F 64% 29.78 in 10.0 mi West 13.8 mph 20.7 mph N/A   Mostly Cloudy
8:45 PM 62.6 °F 51.8 °F 68% 29.79 in 10.0 mi West 11.5 mph 17.3 mph N/A   Mostly Cloudy
9:45 PM 62.6 °F 53.6 °F 72% 29.79 in 10.0 mi West 13.8 mph - N/A   Mostly Cloudy
10:16 PM 62.6 °F 53.6 °F 72% 29.79 in 10.0 mi WSW 10.4 mph - 0.01 in   Unknown
10:36 PM 62.6 °F 53.6 °F 72% 29.78 in 10.0 mi West 10.4 mph 20.7 mph 0.02 in   Unknown
10:55 PM 62.6 °F 53.6 °F 72% 29.78 in 10.0 mi West 11.5 mph - 0.02 in   Unknown
11:18 PM 62.6 °F 53.6 °F 72% 29.78 in 10.0 mi West 11.5 mph - 0.01 in   Unknown
11:36 PM 62.6 °F 53.6 °F 72% 29.79 in 10.0 mi West 13.8 mph 21.9 mph 0.02 in   Unknown
11:56 PM 60.8 °F 53.6 °F 77% 29.79 in 10.0 mi West 11.5 mph 17.3 mph N/A   Unknown